| time (UTC) | temp F | wind direction | speed MPH | gust MPH | rain 1hr in | rain 24hr in | rain mn in | humidity % | barometer mb |
| 20260505200054 | 81 | 136 | 6.0 | 17.0 | 0.00 | 0.00 | 0.00 | 54 | 1006.8 |
| 20260505200019 | 81 | 187 | 6.0 | 16.0 | 0.00 | 0.00 | 0.00 | 65 | 1006.5 |
| 20260505194557 | 80 | 198 | 8.0 | 16.0 | 0.00 | 0.00 | 0.00 | 54 | 1006.9 |
| 20260505194516 | 80 | 171 | 8.0 | 14.0 | 0.00 | 0.00 | 0.00 | 65 | 1006.8 |
| 20260505193055 | 81 | 152 | 4.0 | 11.0 | 0.00 | 0.00 | 0.00 | 53 | 1007.0 |
| 20260505193015 | 81 | 189 | 5.0 | 17.0 | 0.00 | 0.00 | 0.00 | 65 | 1006.9 |
| 20260505191607 | 79 | 188 | 7.0 | 15.0 | 0.00 | 0.00 | 0.00 | 53 | 1007.2 |
| 20260505191515 | 79 | 169 | 8.0 | 15.0 | 0.00 | 0.00 | 0.00 | 65 | 1007.3 |
| 20260505190023 | 79 | 184 | 6.0 | 18.0 | 0.00 | 0.00 | 0.00 | 65 | 1007.2 |
| 20260505184604 | 79 | 202 | 8.0 | 16.0 | 0.00 | 0.00 | 0.00 | 52 | 1007.3 |
| 20260505184512 | 79 | 130 | 9.0 | 13.0 | 0.00 | 0.00 | 0.00 | 64 | 1007.3 |
| 20260505183124 | 78 | 160 | 7.0 | 16.0 | 0.00 | 0.00 | 0.00 | 52 | 1007.5 |
| 20260505183009 | 78 | 201 | 7.0 | 17.0 | 0.00 | 0.00 | 0.00 | 64 | 1007.6 |
| 20260505181558 | 78 | 240 | 6.0 | 14.0 | 0.00 | 0.00 | 0.00 | 52 | 1007.4 |
| 20260505181506 | 78 | 155 | 6.0 | 12.0 | 0.00 | 0.00 | 0.00 | 64 | 1007.5 |
| 20260505180059 | 77 | 184 | 7.0 | 15.0 | 0.00 | 0.00 | 0.00 | 52 | 1007.5 |
| 20260505180008 | 77 | 184 | 6.0 | 14.0 | 0.00 | 0.00 | 0.00 | 64 | 1007.4 |
| 20260505174555 | 77 | 182 | 7.0 | 13.0 | 0.00 | 0.00 | 0.00 | 52 | 1007.6 |
| 20260505174507 | 77 | 171 | 7.0 | 11.0 | 0.00 | 0.00 | 0.00 | 63 | 1007.7 |
| 20260505173059 | 76 | 157 | 6.0 | 11.0 | 0.00 | 0.00 | 0.00 | 52 | 1007.7 |
| 20260505173002 | 77 | 196 | 6.0 | 10.0 | 0.00 | 0.00 | 0.00 | 63 | 1007.7 |
| 20260505171601 | 76 | 200 | 4.0 | 11.0 | 0.00 | 0.00 | 0.00 | 52 | 1007.8 |
| 20260505171559 | 76 | 201 | 5.0 | 10.0 | 0.00 | 0.00 | 0.00 | 63 | 1007.8 |
| 20260505170056 | 75 | 171 | 4.0 | 9.0 | 0.00 | 0.00 | 0.00 | 62 | 1007.9 |
| 20260505170054 | 75 | 171 | 4.0 | 12.0 | 0.00 | 0.00 | 0.00 | 51 | 1007.8 |
| 20260505164601 | 74 | 167 | 6.0 | 10.0 | 0.00 | 0.00 | 0.00 | 62 | 1008.0 |
| 20260505164555 | 75 | 167 | 4.0 | 9.0 | 0.00 | 0.00 | 0.00 | 51 | 1007.9 |
| 20260505163056 | 74 | 207 | 4.0 | 12.0 | 0.00 | 0.00 | 0.00 | 51 | 1008.0 |
| 20260505163050 | 74 | 207 | 4.0 | 8.0 | 0.00 | 0.00 | 0.00 | 62 | 1007.9 |
| 20260505161619 | 74 | 0 | 2.0 | 9.0 | 0.00 | 0.00 | 0.00 | 51 | 1008.3 |
| 20260505161547 | 74 | 182 | 2.0 | 9.0 | 0.00 | 0.00 | 0.00 | 62 | 1008.1 |
| 20260505153104 | 73 | 171 | 3.0 | 14.0 | 0.00 | 0.00 | 0.00 | 51 | 1007.8 |
| 20260505153035 | 73 | 159 | 3.0 | 12.0 | 0.00 | 0.00 | 0.00 | 62 | 1007.8 |
| 20260505151611 | 72 | 192 | 5.0 | 10.0 | 0.00 | 0.00 | 0.00 | 50 | 1008.0 |
| 20260505151532 | 72 | 183 | 5.0 | 9.0 | 0.00 | 0.00 | 0.00 | 62 | 1007.9 |
| 20260505124555 | 69 | 360 | 7.0 | 14.0 | 0.00 | 0.00 | 0.00 | 54 | 1007.4 |
| 20260505124523 | 69 | 360 | 6.0 | 12.0 | 0.00 | 0.00 | 0.00 | 65 | 1007.6 |
| 20260505123054 | 69 | 360 | 4.0 | 14.0 | 0.00 | 0.00 | 0.00 | 54 | 1007.2 |
| 20260505123027 | 69 | 360 | 5.0 | 14.0 | 0.00 | 0.00 | 0.00 | 65 | 1007.4 |
| 20260505121556 | 69 | 360 | 5.0 | 9.0 | 0.00 | 0.00 | 0.00 | 54 | 1007.4 |
| 20260505121521 | 69 | 360 | 4.0 | 9.0 | 0.00 | 0.00 | 0.00 | 65 | 1007.6 |
| 20260505120110 | 69 | 360 | 3.0 | 10.0 | 0.00 | 0.00 | 0.00 | 54 | 1007.3 |
| 20260505120029 | 69 | 360 | 4.0 | 10.0 | 0.00 | 0.00 | 0.00 | 65 | 1007.5 |
| 20260505114553 | 69 | 360 | 4.0 | 14.0 | 0.00 | 0.00 | 0.00 | 54 | 1007.2 |
| 20260505114519 | 69 | 360 | 5.0 | 14.0 | 0.00 | 0.00 | 0.00 | 65 | 1007.5 |
| 20260505113052 | 69 | 360 | 5.0 | 12.0 | 0.00 | 0.00 | 0.00 | 54 | 1007.2 |
| 20260505113012 | 69 | 360 | 7.0 | 14.0 | 0.00 | 0.00 | 0.00 | 65 | 1007.2 |
| 20260505111555 | 69 | 360 | 6.0 | 13.0 | 0.00 | 0.00 | 0.00 | 54 | 1007.1 |
| 20260505111516 | 69 | 360 | 6.0 | 13.0 | 0.00 | 0.00 | 0.00 | 65 | 1007.0 |
| 20260505101554 | 67 | 360 | 3.0 | 9.0 | 0.00 | 0.00 | 0.00 | 55 | 1007.0 |
| 20260505101511 | 67 | 360 | 3.0 | 9.0 | 0.00 | 0.00 | 0.00 | 67 | 1007.1 |
| 20260505100057 | 67 | 360 | 3.0 | 10.0 | 0.00 | 0.00 | 0.00 | 56 | 1007.2 |
| 20260505100004 | 67 | 360 | 2.0 | 10.0 | 0.00 | 0.00 | 0.00 | 67 | 1007.3 |
| 20260505094553 | 67 | 360 | 4.0 | 13.0 | 0.00 | 0.00 | 0.00 | 56 | 1007.4 |
| 20260505094501 | 67 | 360 | 4.0 | 10.0 | 0.00 | 0.00 | 0.00 | 68 | 1007.5 |
| 20260505093103 | 67 | 360 | 5.0 | 11.0 | 0.00 | 0.00 | 0.00 | 68 | 1007.7 |
| 20260505093057 | 67 | 360 | 5.0 | 11.0 | 0.00 | 0.00 | 0.00 | 57 | 1007.6 |
| 20260505091607 | 67 | 360 | 5.0 | 11.0 | 0.00 | 0.00 | 0.00 | 68 | 1007.9 |
| 20260505091553 | 67 | 360 | 4.0 | 9.0 | 0.00 | 0.00 | 0.00 | 57 | 1007.8 |
| 20260505090058 | 67 | 360 | 3.0 | 10.0 | 0.00 | 0.00 | 0.00 | 69 | 1007.9 |
| 20260505090054 | 67 | 360 | 4.0 | 10.0 | 0.00 | 0.00 | 0.00 | 57 | 1007.8 |
| 20260505084557 | 67 | 360 | 3.0 | 11.0 | 0.00 | 0.00 | 0.00 | 69 | 1007.9 |
| 20260505084553 | 67 | 360 | 2.0 | 11.0 | 0.00 | 0.00 | 0.00 | 58 | 1007.8 |
| 20260505083100 | 67 | 360 | 2.0 | 10.0 | 0.00 | 0.00 | 0.00 | 70 | 1008.0 |
| 20260505083054 | 67 | 360 | 3.0 | 10.0 | 0.00 | 0.00 | 0.00 | 58 | 1008.0 |
| 20260505081557 | 68 | 360 | 4.0 | 11.0 | 0.00 | 0.00 | 0.00 | 59 | 1008.0 |
| 20260505081554 | 68 | 360 | 5.0 | 11.0 | 0.00 | 0.00 | 0.00 | 70 | 1008.1 |
| 20260505080059 | 68 | 360 | 5.0 | 10.0 | 0.00 | 0.00 | 0.00 | 59 | 1008.2 |
| 20260505080051 | 68 | 360 | 5.0 | 12.0 | 0.00 | 0.00 | 0.00 | 70 | 1008.3 |
| 20260505074602 | 68 | 360 | 5.0 | 9.0 | 0.00 | 0.00 | 0.00 | 59 | 1008.3 |
| 20260505074549 | 68 | 360 | 5.0 | 9.0 | 0.00 | 0.00 | 0.00 | 71 | 1008.4 |
| 20260505073112 | 68 | 360 | 5.0 | 12.0 | 0.00 | 0.00 | 0.00 | 59 | 1008.2 |
| 20260505073053 | 68 | 360 | 5.0 | 12.0 | 0.00 | 0.00 | 0.00 | 71 | 1008.2 |
| 20260505071602 | 68 | 360 | 4.0 | 10.0 | 0.00 | 0.00 | 0.00 | 59 | 1008.3 |
| 20260505071557 | 68 | 360 | 4.0 | 10.0 | 0.00 | 0.00 | 0.00 | 71 | 1008.3 |
| 20260505070045 | 67 | 360 | 3.0 | 10.0 | 0.00 | 0.00 | 0.00 | 71 | 1008.5 |
| 20260505064601 | 68 | 360 | 3.0 | 12.0 | 0.00 | 0.00 | 0.00 | 60 | 1008.6 |
| 20260505064543 | 68 | 360 | 2.0 | 10.0 | 0.00 | 0.00 | 0.00 | 71 | 1008.7 |
| 20260505063100 | 68 | 360 | 6.0 | 13.0 | 0.00 | 0.00 | 0.00 | 60 | 1008.7 |
| 20260505063041 | 68 | 360 | 6.0 | 13.0 | 0.00 | 0.00 | 0.00 | 72 | 1008.8 |
| 20260505061559 | 68 | 360 | 6.0 | 14.0 | 0.00 | 0.00 | 0.00 | 60 | 1008.9 |
| 20260505061538 | 68 | 360 | 7.0 | 14.0 | 0.00 | 0.00 | 0.00 | 72 | 1008.9 |
| 20260505060104 | 68 | 360 | 4.0 | 11.0 | 0.00 | 0.00 | 0.00 | 60 | 1008.9 |
| 20260505060045 | 68 | 360 | 4.0 | 9.0 | 0.00 | 0.00 | 0.00 | 71 | 1008.8 |
| 20260505054626 | 68 | 360 | 4.0 | 12.0 | 0.00 | 0.00 | 0.00 | 59 | 1009.2 |
| 20260505054535 | 68 | 360 | 3.0 | 12.0 | 0.00 | 0.00 | 0.00 | 71 | 1009.1 |
| 20260505053108 | 68 | 360 | 4.0 | 16.0 | 0.00 | 0.00 | 0.00 | 59 | 1009.1 |
| 20260505053032 | 68 | 360 | 5.0 | 16.0 | 0.00 | 0.00 | 0.00 | 71 | 1009.0 |
| 20260505051555 | 68 | 360 | 5.0 | 14.0 | 0.00 | 0.00 | 0.00 | 59 | 1009.2 |
| 20260505051530 | 68 | 360 | 5.0 | 14.0 | 0.00 | 0.00 | 0.00 | 70 | 1009.2 |
| 20260505041559 | 69 | 360 | 5.0 | 11.0 | 0.00 | 0.00 | 0.00 | 58 | 1009.5 |
| 20260505041527 | 69 | 360 | 6.0 | 12.0 | 0.00 | 0.00 | 0.00 | 70 | 1009.4 |
| 20260505040059 | 69 | 360 | 4.0 | 12.0 | 0.00 | 0.00 | 0.00 | 58 | 1009.5 |
| 20260505040026 | 69 | 360 | 4.0 | 9.0 | 0.00 | 0.00 | 0.00 | 70 | 1009.3 |
| 20260505034556 | 69 | 360 | 4.0 | 11.0 | 0.00 | 0.00 | 0.00 | 58 | 1009.5 |
| 20260505034524 | 69 | 360 | 4.0 | 11.0 | 0.00 | 0.00 | 0.00 | 69 | 1009.4 |
| 20260505033054 | 69 | 360 | 5.0 | 10.0 | 0.00 | 0.00 | 0.00 | 57 | 1009.4 |
| 20260505033024 | 69 | 360 | 5.0 | 10.0 | 0.00 | 0.00 | 0.00 | 69 | 1009.3 |
| 20260505031606 | 69 | 360 | 4.0 | 12.0 | 0.00 | 0.00 | 0.00 | 57 | 1009.4 |
| 20260505031523 | 69 | 360 | 4.0 | 11.0 | 0.00 | 0.00 | 0.00 | 69 | 1009.4 |
| 20260505030053 | 70 | 360 | 6.0 | 12.0 | 0.00 | 0.00 | 0.00 | 56 | 1009.7 |
| 20260505030022 | 70 | 360 | 6.0 | 12.0 | 0.00 | 0.00 | 0.00 | 68 | 1009.6 |
| 20260505024554 | 70 | 360 | 5.0 | 12.0 | 0.00 | 0.00 | 0.00 | 56 | 1009.7 |
| 20260505024522 | 70 | 360 | 5.0 | 12.0 | 0.00 | 0.00 | 0.00 | 67 | 1009.6 |
| 20260505023114 | 70 | 360 | 5.0 | 11.0 | 0.00 | 0.00 | 0.00 | 56 | 1009.5 |
| 20260505023024 | 70 | 360 | 5.0 | 10.0 | 0.00 | 0.00 | 0.00 | 67 | 1009.4 |
| 20260505021558 | 70 | 360 | 5.0 | 10.0 | 0.00 | 0.00 | 0.00 | 55 | 1009.3 |
| 20260505021527 | 70 | 360 | 5.0 | 10.0 | 0.00 | 0.00 | 0.00 | 67 | 1009.0 |
| 20260505020056 | 70 | 181 | 4.0 | 8.0 | 0.00 | 0.00 | 0.00 | 55 | 1009.1 |
| 20260505020021 | 70 | 198 | 5.0 | 7.0 | 0.00 | 0.00 | 0.00 | 66 | 1008.9 |
| 20260505014605 | 71 | 169 | 4.0 | 11.0 | 0.00 | 0.00 | 0.00 | 53 | 1008.8 |
| 20260505014520 | 71 | 163 | 4.0 | 10.0 | 0.00 | 0.00 | 0.00 | 65 | 1008.8 |
| 20260505013108 | 72 | 178 | 5.0 | 10.0 | 0.00 | 0.00 | 0.00 | 53 | 1008.7 |
| 20260505013019 | 72 | 184 | 6.0 | 10.0 | 0.00 | 0.00 | 0.00 | 64 | 1008.6 |
| 20260505011557 | 72 | 162 | 5.0 | 10.0 | 0.00 | 0.00 | 0.00 | 52 | 1008.7 |
| 20260505011523 | 72 | 187 | 5.0 | 9.0 | 0.00 | 0.00 | 0.00 | 63 | 1008.6 |
| 20260505010100 | 73 | 149 | 4.0 | 12.0 | 0.00 | 0.00 | 0.00 | 51 | 1008.9 |
| 20260505010017 | 73 | 135 | 3.0 | 12.0 | 0.00 | 0.00 | 0.00 | 63 | 1008.8 |
| 20260505004559 | 73 | 182 | 3.0 | 9.0 | 0.00 | 0.00 | 0.00 | 51 | 1008.8 |
| 20260505004521 | 73 | 175 | 3.0 | 8.0 | 0.00 | 0.00 | 0.00 | 62 | 1008.7 |
| 20260505003054 | 74 | 174 | 1.0 | 10.0 | 0.00 | 0.00 | 0.00 | 49 | 1008.8 |
| 20260505003016 | 74 | 189 | 2.0 | 9.0 | 0.00 | 0.00 | 0.00 | 61 | 1008.7 |
| 20260505001600 | 75 | 186 | 5.0 | 12.0 | 0.00 | 0.00 | 0.00 | 47 | 1008.9 |
| 20260505001516 | 75 | 168 | 5.0 | 12.0 | 0.00 | 0.00 | 0.00 | 59 | 1008.8 |
| 20260505000117 | 76 | 185 | 6.0 | 15.0 | 0.00 | 0.00 | 0.00 | 46 | 1008.9 |
| 20260505000021 | 76 | 191 | 5.0 | 15.0 | 0.00 | 0.00 | 0.00 | 57 | 1008.9 |
| 20260504234557 | 77 | 175 | 7.0 | 13.0 | 0.00 | 0.00 | 0.00 | 45 | 1009.0 |
| 20260504234512 | 77 | 146 | 7.0 | 13.0 | 0.00 | 0.00 | 0.00 | 56 | 1008.8 |
| 20260504233057 | 77 | 181 | 7.0 | 16.0 | 0.00 | 0.00 | 0.00 | 44 | 1009.0 |
| 20260504233012 | 77 | 147 | 7.0 | 16.0 | 0.00 | 0.00 | 0.00 | 55 | 1008.9 |
| 20260504231555 | 77 | 182 | 6.0 | 15.0 | 0.00 | 0.00 | 0.00 | 43 | 1009.4 |
| 20260504231511 | 77 | 165 | 7.0 | 13.0 | 0.00 | 0.00 | 0.00 | 55 | 1009.2 |
| 20260504230106 | 77 | 179 | 5.0 | 12.0 | 0.00 | 0.00 | 0.00 | 44 | 1009.6 |
| 20260504230007 | 78 | 171 | 5.0 | 11.0 | 0.00 | 0.00 | 0.00 | 55 | 1009.5 |
| 20260504224554 | 79 | 241 | 4.0 | 12.0 | 0.00 | 0.00 | 0.00 | 43 | 1009.6 |
| 20260504224506 | 79 | 174 | 4.0 | 9.0 | 0.00 | 0.00 | 0.00 | 55 | 1009.4 |
| 20260504223101 | 79 | 122 | 6.0 | 13.0 | 0.00 | 0.00 | 0.00 | 43 | 1009.6 |
| 20260504223008 | 79 | 122 | 6.0 | 12.0 | 0.00 | 0.00 | 0.00 | 55 | 1009.5 |
| 20260504221603 | 79 | 202 | 8.0 | 17.0 | 0.00 | 0.00 | 0.00 | 41 | 1009.9 |
| 20260504221503 | 79 | 193 | 8.0 | 14.0 | 0.00 | 0.00 | 0.00 | 52 | 1009.8 |
| 20260504220100 | 79 | 170 | 4.0 | 10.0 | 0.00 | 0.00 | 0.00 | 41 | 1010.0 |
| 20260504220002 | 79 | 180 | 4.0 | 10.0 | 0.00 | 0.00 | 0.00 | 53 | 1009.9 |
| 20260504214557 | 78 | 170 | 7.0 | 16.0 | 0.00 | 0.00 | 0.00 | 40 | 1010.2 |
| 20260504213121 | 79 | 138 | 7.0 | 13.0 | 0.00 | 0.00 | 0.00 | 52 | 1010.3 |
| 20260504213102 | 79 | 167 | 7.0 | 15.0 | 0.00 | 0.00 | 0.00 | 41 | 1010.4 |
| 20260504211600 | 79 | 167 | 8.0 | 16.0 | 0.00 | 0.00 | 0.00 | 39 | 1010.7 |
| 20260504211556 | 79 | 148 | 8.0 | 15.0 | 0.00 | 0.00 | 0.00 | 50 | 1010.6 |
| 20260504210057 | 81 | 160 | 6.0 | 13.0 | 0.00 | 0.00 | 0.00 | 50 | 1010.9 |
| 20260504204601 | 80 | 186 | 4.0 | 11.0 | 0.00 | 0.00 | 0.00 | 36 | 1011.2 |
| 20260504204553 | 80 | 193 | 4.0 | 10.0 | 0.00 | 0.00 | 0.00 | 48 | 1011.2 |
| 20260504203102 | 80 | 173 | 5.0 | 13.0 | 0.00 | 0.00 | 0.00 | 35 | 1011.4 |
| 20260504203053 | 80 | 175 | 7.0 | 11.0 | 0.00 | 0.00 | 0.00 | 47 | 1011.3 |
| 20260504201601 | 80 | 205 | 7.0 | 15.0 | 0.00 | 0.00 | 0.00 | 34 | 1011.7 |